Regional Weather Roundup
Issued by NWS

Home | Current Version | Previous Version | Graphics & Text | Print | Product List | Glossary On
Versions: 1 2 3 4 5 6 7 8 9 10 11 12 13 14 15 16 17 18 19 20 21 22 23 24 25 26 27 28 29 30 31 32 33 34 35 36 37 38 39 40 41 42 43 44 45 46 47 48 49 50
000
ASUS43 KLSX 281707
RWRMO

WEATHER SUMMARY FOR MISSOURI
NATIONAL WEATHER SERVICE SPRINGFIELD MO
1200 PM CDT WED JUN 28 2017

NOTE: "FAIR" INDICATES FEW OR NO CLOUDS BELOW 12,000 FEET WITH NO
       SIGNIFICANT WEATHER AND/OR OBSTRUCTIONS TO VISIBILITY.
       CURRENT SKY AND/OR WEATHER CONDITIONS ARE NOT AVAILABLE FOR
       CHILLICOTHE AND FARMINGTON.

MOZ001>031-035>038-043-044-053-054-281800-
...NORTHERN AND WESTERN MISSOURI...

CITY           SKY/WX    TMP DP  RH WIND       PRES   REMARKS
KANSAS CTY INT PTSUNNY   83  71  67 SW21G29   29.80F
KANSAS C DTWN  MOSUNNY   86  71  60 SW14G24   29.80S HX  91
LEE`S SUMMIT   CLOUDY    83  70  64 SW23G32   29.83S
ST JOSEPH      PTSUNNY   81  72  74 SW17G30   29.76F
CHILLICOTHE      N/A     81  70  69 S13G23    29.81R
KIRKSVILLE     CLOUDY    80  68  66 SW20G28   29.84R

$$
MOZ066>068-077>081-088>096-101>105-281800-
...SOUTHWEST MISSOURI...

CITY           SKY/WX    TMP DP  RH WIND       PRES   REMARKS
SPRINGFIELD    MOSUNNY   80  67  64 S21       29.97F
JOPLIN         SUNNY     84  72  67 S24G33    29.92F
BRANSON        PTSUNNY   82  64  54 S8        30.04R

$$
MOZ032>034-039>042-045>050-055>058-069>072-281800-
...CENTRAL MISSOURI...

CITY           SKY/WX    TMP DP  RH WIND       PRES   REMARKS
COLUMBIA       CLOUDY    79  68  69 S17       29.92F
JEFFERSON CITY PTSUNNY   80  66  62 S10       29.92F
ROLLA          CLOUDY    80  65  59 S21G29    29.98F
SEDALIA        SUNNY     82  71  69 S20G30    29.89F
WHITEMAN AFB   MOSUNNY   82  73  73 SW28G37   29.84F
WARRENSBURG    SUNNY     81  66  61 S17G30    29.83F
OSAGE BEACH    PTSUNNY   81  67  62 S16G25    29.95F

$$
MOZ051-052-059>065-281800-
...EAST CENTRAL MISSOURI...

CITY           SKY/WX    TMP DP  RH WIND       PRES   REMARKS
ST LOUIS INTL  PTSUNNY   82  64  54 S13G25    29.99F
SPIRIT OF STL  CLOUDY    80  65  59 S10G20    29.97F
ST CHARLES     PTSUNNY   80  65  59 S17       29.97F

$$
MOZ072>076-082>087-097>100-106>115-281800-
...SOUTH CENTRAL AND SOUTHEAST MISSOURI...

CITY           SKY/WX    TMP DP  RH WIND       PRES   REMARKS
CAPE GIRARDEAU CLOUDY    82  65  56 S13G21    30.06F
FARMINGTON     CLOUDY    81  65  58 S16       30.04F
POPLAR BLUFF   MOSUNNY   81  68  64 S8        30.05F
WEST PLAINS    MOSUNNY   79  64  60 S9        30.06F

$$




USA.gov is the U.S. government's official web portal to all federal, state and local government web resources and services.